Regional Weather Roundup
Issued by NWS

Home | Current Version | Previous Version | Graphics & Text | Print | Product List | Glossary On
Versions: 1 2 3 4 5 6 7 8 9 10 11 12 13 14 15 16 17 18 19 20 21 22 23 24 25 26 27 28 29 30 31 32 33 34 35 36 37 38 39 40 41 42 43 44 45 46 47 48 49 50
000
ASUS43 KIND 231600
RWRIN

WEATHER ROUNDUP FOR INDIANA
NATIONAL WEATHER SERVICE INDIANAPOLIS IN
1200 PM EDT WED AUG 23 2017

NOTE: "FAIR" INDICATES FEW OR NO CLOUDS BELOW 12,000 FEET WITH NO
SIGNIFICANT WEATHER AND/OR OBSTRUCTIONS TO VISIBILITY.

* - STATION DOES NOT REPORT WEATHER SUCH AS PRECIPITATION OR FOG.

+ - STATION NOT QUALITY CONTROLLED BY THE NATIONAL WEATHER SERVICE.
    USE DATA WITH CAUTION...ESPECIALLY DEWPOINT AND RELATIVE
    HUMIDITY OBSERVATIONS.

INZ001>003-010>013-019-020-231700-
NORTHWEST INDIANA

CITY           SKY/WX    TMP DP  RH WIND       PRES   REMARKS
GARY /AIRPORT/ MOSUNNY   75  45  33 W10G23    30.05S
MICHIGAN CITY+ SUNNY     70  57  64 NW10G16   30.05R
MONTICELLO +   SUNNY     71  55  57 NW7       30.06R
RENSSELAER +   SUNNY     72  50  46 W8        30.07S

$$

LMZ046-743>745-231700-
SOUTHERN LAKE MICHIGAN

STATION/POSITION TIME  TEMP    WIND        PRES    WAVE
                       AIR SEA DIR/SP/G            HT
                 (UTC) (F)     (DEG/KT/KT) (MB)    (FT)
BURNS HARBOR     1540   69     330/  8/ 12 1017.9R
MICHIGAN CITY    1530   68     300/ 14/ 16   N/A
5NW MICH CITY    1550   68 73  320/ 12/ 16   N/A     4

$$

INZ004-005-014>016-021>024-231700-
NORTH CENTRAL INDIANA

CITY           SKY/WX    TMP DP  RH WIND       PRES   REMARKS
ELKHART        MOSUNNY   72  50  46 NW12      30.02S
GOSHEN         PTSUNNY   73  53  49 W15       30.02S
PERU/GRISSOM   MOSUNNY   72  56  57 NW13      30.05R
SOUTH BEND     MOSUNNY   72  54  53 NW16G24   30.03R

$$

INZ006>009-017-018-025>027-231700-
NORTHEAST INDIANA

CITY           SKY/WX    TMP DP  RH WIND       PRES   REMARKS
FORT WAYNE     MOSUNNY   73  55  53 W10       30.03S
KENDALLVILLE + MOSUNNY   70  55  58 NW9       30.03R

$$

INZ028-029-035-036-043>045-051>053-231700-
WEST CENTRAL INDIANA

CITY           SKY/WX    TMP DP  RH WIND       PRES   REMARKS
LAFAYETTE      SUNNY     72  53  51 NW7       30.07R
TERRE HAUTE    SUNNY     74  54  49 NE8       30.09R

$$

INZ030>032-037>040-046>048-054>057-064-065-231700-
CENTRAL INDIANA

CITY           SKY/WX    TMP DP  RH WIND       PRES   REMARKS
COLUMBUS       MOSUNNY   72  54  53 NW5       30.07R
GREENWOOD *+   MOSUNNY  N/A N/A N/A CALM      30.07S
INDIANAPOLIS   MOSUNNY   75  51  43 NW10      30.06S
-EAGLE CREEK   SUNNY     75  51  43 N8        30.06S
KOKOMO +       SUNNY     71  56  58 NW9       30.07R
MT COMFORT *+  SUNNY     72  52  49 CALM      30.07R
SHELBYVILLE    MOSUNNY   74  55  51 NW5       30.05S

$$

INZ033-034-041-042-049-050-058-059-231700-
EAST CENTRAL INDIANA

CITY           SKY/WX    TMP DP  RH WIND       PRES   REMARKS
MUNCIE         SUNNY     75  54  47 W3        30.05S
RICHMOND +     PTSUNNY   68  54  60 NW7       30.07R

$$

INZ060-061-067>069-081>083-085>088-231700-
SOUTHWEST INDIANA

CITY           SKY/WX    TMP DP  RH WIND       PRES   REMARKS
EVANSVILLE     SUNNY     76  58  53 N6        30.07S
HUNTINGBURG +  SUNNY     75  59  57 MISG      30.06S

$$

INZ062-063-066-070>080-084-089>092-231700-
SOUTH CENTRAL AND SOUTHEAST INDIANA

CITY           SKY/WX    TMP DP  RH WIND       PRES   REMARKS
BLOOMINGTON    MOSUNNY   75  56  51 VRB5      30.07S
MADISON *+     SUNNY     75  50  41 NE3       30.08S
SEYMOUR +      SUNNY     75  54  46 CALM      30.06S

$$





USA.gov is the U.S. government's official web portal to all federal, state and local government web resources and services.